Miscellaneous Local Product
Issued by NWS North Platte, NE

Home | Current Version | Previous Version | Text Only | Print | Product List | Glossary On
Versions: 1 2 3 4 5 6 7 8 9 10 11 12 13 14 15 16 17 18 19 20 21 22 23 24 25 26 27 28 29 30 31 32 33 34 35 36 37 38 39 40 41 42 43 44 45 46 47 48 49 50
884
AXUS43 KLBF 221210
MISLBF


WESTERN AND NORTH CENTRAL NEBRASKA HOURLY WEATHER ROUNDUP
NATIONAL WEATHER SERVICE NORTH PLATTE NE
600 AM CST WED FEB 22 2017

NOTE: "FAIR" INDICATES FEW OR NO CLOUDS BELOW 12,000 FEET WITH NO
SIGNIFICANT WEATHER AND/OR OBSTRUCTIONS TO VISIBILITY.

NOTE: STATIONS NOT REPORTING VARIABLES SUCH AS SKY/WEATHER OR
PRESSURE ARE PROVIDED BY RAWS AND APRS NETWORKS AND ARE NOT UNDER
NATIONAL WEATHER SERVICE QUALITY CONTROL.

...OBSERVATIONS IN AND NEAR THE EASTERN PANHANDLE OF NEBRASKA...

CITY           SKY/WX    TMP DP  RH WIND       PRES   REMARKS
PINE RIDGE     MOCLDY    41  36  82 N3        29.76R
CHADRON        CLOUDY    42  32  67 W7        29.78R
ALLIANCE       CLEAR     35  29  78 W13       29.80F WCI  26
SIDNEY         CLEAR     38  29  70 NW16      29.84S WCI  29
CRESCENT LAKE    N/A     38  32  80 NW8         N/A  WCI  32
$$

...OBSERVATIONS IN NORTHERN NEBRASKA AND FAR SOUTHERN SOUTH DAKOTA...

CITY           SKY/WX    TMP DP  RH WIND       PRES   REMARKS
WINNER         FAIR      47  37  68 S9        29.66F
VALENTINE      CLEAR     36  30  79 SW13      29.70F WCI  27
THEDFORD       CLEAR     41  32  71 W8        29.77S
AINSWORTH      CLEAR     44  36  73 W10       29.71F
O`NEILL        CLEAR     40  31  69 W8        29.67S
ORD            CLEAR     35  28  75 NW3       29.67S
BROKEN BOW     CLEAR     49  26  41 NW21      29.71R
VALENTINE NWR    N/A     45  33  62 W10         N/A
BUTTE            N/A     45  34  66 W10G17      N/A
HALSEY           N/A     44  29  57 W8G16       N/A
CHAMBERS         N/A     40  28  63 CALM        N/A
EWING            N/A     39  30  71 W3          N/A
$$

...OBSERVATIONS IN SOUTHWEST NEBRASKA AND FAR NORTHEAST COLORADO...

CITY           SKY/WX    TMP DP  RH WIND       PRES   REMARKS
HOLYOKE        FAIR      34  21  60 CALM      29.86S
IMPERIAL       CLEAR     41  26  55 NW13      29.83S
OGALLALA       CLEAR     40  32  73 W6        29.83R
NORTH PLATTE   CLEAR     32  25  75 W8        29.78R WCI  25
MCCOOK         CLEAR     46  22  38 NW17      29.78R
LEXINGTON      CLEAR     39  28  63 W15       29.73R WCI  31
STAPLETON        N/A     40  29  65 CALM        N/A
GOTHENBURG       N/A     42  24  49 NW10        N/A
CALLAWAY         N/A     39  25  57 NW13        N/A  WCI  31
$$

...OBSERVATIONS IN CENTRAL LINCOLN COUNTY AREA...

CITY           SKY/WX    TMP DP  RH WIND       PRES   REMARKS
N.P. AIRPORT   CLEAR     32  25  75 W8        29.78R WCI  25
N.P. DOWNTOWN    N/A     40  30  66 CALM        N/A
N.P. SOUTHEAST   N/A     42  30  61 CALM        N/A
N.P. HILLCREST   N/A     43  31  63 NW8         N/A
$$

...SOME OBSERVATIONS FROM AROUND THE REGION...

CITY           SKY/WX    TMP DP  RH WIND       PRES   REMARKS
LARAMIE        CLOUDY    28  22  78 N7        29.93F WCI  21
CHEYENNE       CLEAR     33  22  63 W16G24    29.91S WCI  23
DENVER         PTCLDY    44  16  32 W7        29.85S
AKRON          CLEAR     37  26  64 N12       29.88R WCI  29
SCOTTSBLUFF    CLEAR     42  29  59 W20       29.85R
RAPID CITY     PTCLDY    44  32  62 NW10      29.70R
BISMARCK       LGT RAIN  35  34  96 NW5       29.70S WCI  31
PIERRE         CLOUDY    46  37  71 W10       29.62R
SIOUX FALLS    PTCLDY    37  33  85 W3        29.61R
OMAHA          CLEAR     46  35  65 SE12      29.68F
GRAND ISLAND   CLEAR     41  29  62 SW6       29.69R
KANSAS CITY    CLEAR     47  38  71 S12       29.80S
WICHITA        CLEAR     40  35  83 S6        29.82F
OKLAHOMA CITY  CLEAR     42  36  79 S8        29.86F
DALLAS         CLEAR     51  41  68 CALM      29.90R
AMARILLO       CLOUDY    47  24  40 W8        29.94S
DODGE CITY     CLOUDY    37  24  59 S8        29.81S WCI  31
HAYS             N/A     42  26  53 S7        29.77S
GOODLAND       CLOUDY    50  19  29 SW15      29.80S
$$




USA.gov is the U.S. government's official web portal to all federal, state and local government web resources and services.